AUA731 LOWW-LQSA

Flight info

Callsign AUA731
Flight time N/A
Altitude 30000
Route RUPET DCT GRZ/N0452F370 DCT PETOV DCT TIVNU DCT BOSNA
Aircraft A320/M-SDE3FGHIRWY/LB1

Departure

Time 2026-05-06 20:22
Airport Vienna International Airport (LOWW)

Arrival

Time N/A
Airport Sarajevo International Airport (LQSA)
Time Latitude Longitude Altitude Speed Heading
2026-05-06 20:00 48.12065 16.56824 610 ft 0 kts 25°
2026-05-06 20:06 48.12060 16.56821 623 ft 4 kts 26°
2026-05-06 20:06 48.12037 16.56801 624 ft 4 kts 43°
2026-05-06 20:07 48.12024 16.56773 623 ft 4 kts 95°
2026-05-06 20:07 48.12025 16.56760 621 ft 0 kts 116°
2026-05-06 20:09 48.12021 16.56771 624 ft 4 kts 116°
2026-05-06 20:09 48.11997 16.56848 616 ft 12 kts 116°
2026-05-06 20:09 48.11955 16.56974 626 ft 15 kts 116°
2026-05-06 20:09 48.11903 16.57131 617 ft 16 kts 116°
2026-05-06 20:10 48.11835 16.57271 625 ft 18 kts 117°
2026-05-06 20:10 48.11744 16.57372 617 ft 18 kts 165°
2026-05-06 20:10 48.11616 16.57427 621 ft 19 kts 164°
2026-05-06 20:10 48.11494 16.57456 610 ft 16 kts 192°
2026-05-06 20:11 48.11380 16.57380 623 ft 20 kts 205°
2026-05-06 20:11 48.11264 16.57297 618 ft 12 kts 206°
2026-05-06 20:11 48.11241 16.57175 610 ft 16 kts 295°
2026-05-06 20:11 48.11298 16.57000 626 ft 21 kts 295°
2026-05-06 20:12 48.11369 16.56783 614 ft 26 kts 296°
2026-05-06 20:12 48.11448 16.56542 619 ft 22 kts 295°
2026-05-06 20:12 48.11505 16.56362 618 ft 20 kts 295°
2026-05-06 20:12 48.11572 16.56158 611 ft 24 kts 296°
2026-05-06 20:13 48.11652 16.55911 617 ft 29 kts 295°
2026-05-06 20:13 48.11742 16.55637 620 ft 30 kts 297°
2026-05-06 20:13 48.11839 16.55339 620 ft 30 kts 296°
2026-05-06 20:13 48.11919 16.55101 621 ft 26 kts 295°
2026-05-06 20:14 48.12003 16.54834 611 ft 31 kts 295°
2026-05-06 20:14 48.12070 16.54623 612 ft 14 kts 290°
2026-05-06 20:14 48.12037 16.54541 619 ft 0 kts 192°
2026-05-06 20:14 48.12034 16.54540 624 ft 3 kts 192°
2026-05-06 20:15 48.11979 16.54574 618 ft 11 kts 143°
2026-05-06 20:15 48.11906 16.54631 619 ft 12 kts 183°
2026-05-06 20:15 48.11852 16.54654 616 ft 0 kts 116°
2026-05-06 20:21 48.11848 16.54668 609 ft 8 kts 116°
2026-05-06 20:22 48.11711 16.55084 621 ft 82 kts 115°
2026-05-06 20:22 48.11372 16.56125 615 ft 141 kts 116°
2026-05-06 20:22 48.10949 16.57463 1264 ft 140 kts 122°
2026-05-06 20:22 48.10510 16.58797 1909 ft 148 kts 128°
2026-05-06 20:23 48.10004 16.60271 2380 ft 170 kts 130°
2026-05-06 20:23 48.09423 16.61958 2808 ft 195 kts 128°
2026-05-06 20:23 48.08776 16.63862 3367 ft 213 kts 126°
2026-05-06 20:23 48.08101 16.65897 4073 ft 223 kts 124°
2026-05-06 20:24 48.07405 16.68021 4754 ft 233 kts 124°
2026-05-06 20:24 48.06494 16.69953 4949 ft 226 kts 149°
2026-05-06 20:24 48.05558 16.70744 4994 ft 244 kts 169°
2026-05-06 20:24 48.03779 16.70812 5013 ft 276 kts 194°
2026-05-06 20:25 48.01759 16.70139 5051 ft 315 kts 196°
2026-05-06 20:25 47.99548 16.69353 5372 ft 338 kts 196°
2026-05-06 20:25 47.97250 16.68369 5965 ft 347 kts 206°
2026-05-06 20:25 47.95351 16.66188 6659 ft 351 kts 231°
2026-05-06 20:26 47.94241 16.62935 7118 ft 356 kts 252°
2026-05-06 20:26 47.93680 16.59327 7487 ft 358 kts 258°
2026-05-06 20:26 47.93312 16.55650 7790 ft 360 kts 261°
2026-05-06 20:26 47.93021 16.51936 8047 ft 361 kts 261°
2026-05-06 20:27 47.92733 16.48188 8418 ft 366 kts 261°
2026-05-06 20:27 47.92413 16.44409 9254 ft 369 kts 260°
2026-05-06 20:27 47.91941 16.40627 10009 ft 372 kts 251°
2026-05-06 20:27 47.90802 16.37179 10701 ft 374 kts 234°
2026-05-06 20:28 47.89069 16.34342 11396 ft 376 kts 225°
2026-05-06 20:28 47.87238 16.31667 12608 ft 365 kts 224°
2026-05-06 20:28 47.85418 16.29040 13506 ft 365 kts 224°
2026-05-06 20:28 47.83584 16.26403 14193 ft 368 kts 224°
2026-05-06 20:29 47.81736 16.23746 14840 ft 371 kts 224°
2026-05-06 20:29 47.79867 16.21052 15423 ft 377 kts 224°
2026-05-06 20:29 47.77972 16.18316 15978 ft 382 kts 224°
2026-05-06 20:29 47.76060 16.15548 16616 ft 385 kts 224°
2026-05-06 20:30 47.74131 16.12763 17219 ft 388 kts 224°
2026-05-06 20:30 47.70215 16.07126 18326 ft 396 kts 224°
2026-05-06 20:30 47.68230 16.04269 18868 ft 398 kts 224°
2026-05-06 20:31 47.66231 16.01399 19369 ft 401 kts 224°
2026-05-06 20:31 47.64218 15.98514 19860 ft 404 kts 224°
2026-05-06 20:31 47.62187 15.95602 20349 ft 407 kts 224°
2026-05-06 20:31 47.60084 15.92788 20876 ft 409 kts 216°
2026-05-06 20:32 47.57572 15.90815 21336 ft 412 kts 200°
2026-05-06 20:32 47.54742 15.90018 21774 ft 418 kts 183°
2026-05-06 20:32 47.51819 15.90129 22214 ft 422 kts 180°
2026-05-06 20:32 47.48875 15.90313 22669 ft 425 kts 180°